User: anonymous   Login
Location: Caltech
(34.1382°N, 118.1253°W)
Time: 21:47:07
(UTC-07:00)
Language:

Oscar 16 - Orbit

View from above orbital plane
View from above orbital plane
View from above satellite
View from above satellite

Ground track
Ground track

The orbit data is extracted from the following two-line orbital elements,

1 20439U 90005D   17207.76719785 -.00000002 +00000-0 +15602-4 0  9990
2 20439 098.6104 146.8294 0011773 049.7204 340.1150 14.32686586437071
Epoch (UTC): 26 July 2017 18:24:45
Eccentricity: 0.0011773
inclination: 98.6104°
perigee height: 774 km
apogee height: 791 km
right ascension of ascending node: 146.8294°
argument of perigee: 49.7204°
revolutions per day: 14.32686586
mean anomaly at epoch: 340.1150°
orbit number at epoch: 43707

The dashed part of the orbit path shows where the satellite is in the earth's shadow,  

DLR